• In Belarus
  • List of Countries
  • For 7 days
  • Water Temperature
  • Satellite Maps
  • Weather Map
  • Weather Widgets
  • user-avatar
    Login

    Hourly Weather Tiwi

    Today, 23 November, Thursday

    Time Temperature Precipitation Wind Pressure Humidity
    00:00 +23°C° 0 mm 2 mps 753 mmHg 59%
    01:00 +23°C° 0 mm 2 mps 753 mmHg 61%
    02:00 +23°C° 0 mm 2 mps 752 mmHg 63%
    03:00 +21°C° 0 mm 2 mps 752 mmHg 66%
    04:00 +21°C° 0 mm 2 mps 752 mmHg 68%
    05:00 +21°C° 0 mm 2 mps 752 mmHg 70%
    06:00 +21°C° 0 mm 2 mps 752 mmHg 72%
    07:00 +21°C° 0 mm 3 mps 752 mmHg 74%
    08:00 +24°C° 0 mm 3 mps 753 mmHg 60%
    09:00 +27°C° 0 mm 2 mps 753 mmHg 46%
    10:00 +29°C° 0 mm 2 mps 753 mmHg 32%
    11:00 +30°C° 0 mm 3 mps 753 mmHg 28%
    12:00 +31°C° 0 mm 3 mps 753 mmHg 24%
    13:00 +33°C° 0 mm 3 mps 752 mmHg 21%
    14:00 +33°C° 0 mm 3 mps 752 mmHg 22%
    15:00 +31°C° 0 mm 3 mps 752 mmHg 23%
    16:00 +31°C° 0 mm 3 mps 752 mmHg 24%
    17:00 +29°C° 0 mm 2 mps 752 mmHg 30%
    18:00 +27°C° 0 mm 2 mps 752 mmHg 36%
    19:00 +26°C° 0 mm 2 mps 753 mmHg 42%
    20:00 +25°C° 0.1 mm 2 mps 753 mmHg 42%
    21:00 +24°C° 0.1 mm 3 mps 753 mmHg 43%
    22:00 +24°C° 0.1 mm 3 mps 753 mmHg 44%
    23:00 +24°C° 0.1 mm 3 mps 753 mmHg 47%

    Tomorrow, 24 November, Friday

    Time Temperature Precipitation Wind Pressure Humidity
    00:00 +24°C° 0.1 mm 2 mps 753 mmHg 51%
    01:00 +24°C° 0.1 mm 2 mps 753 mmHg 54%
    02:00 +23°C° 0.1 mm 2 mps 753 mmHg 58%
    03:00 +23°C° 0.1 mm 2 mps 753 mmHg 62%
    04:00 +21°C° 0.1 mm 2 mps 753 mmHg 66%
    05:00 +21°C° 0.2 mm 2 mps 753 mmHg 66%
    06:00 +21°C° 0.2 mm 2 mps 753 mmHg 65%
    07:00 +20°C° 0.2 mm 2 mps 754 mmHg 65%
    08:00 +24°C° 0.3 mm 2 mps 754 mmHg 53%
    09:00 +27°C° 0.3 mm 2 mps 755 mmHg 41%
    10:00 +29°C° 0.3 mm 2 mps 755 mmHg 29%
    11:00 +30°C° 0 mm 2 mps 755 mmHg 28%
    12:00 +31°C° 0 mm 3 mps 754 mmHg 27%
    13:00 +31°C° 0 mm 3 mps 754 mmHg 26%
    14:00 +32°C° 0.1 mm 4 mps 754 mmHg 31%
    15:00 +30°C° 0.1 mm 4 mps 753 mmHg 37%
    16:00 +29°C° 0.1 mm 5 mps 753 mmHg 42%
    17:00 +28°C° 0 mm 5 mps 754 mmHg 47%
    18:00 +26°C° 0 mm 5 mps 754 mmHg 52%
    19:00 +25°C° 0 mm 5 mps 754 mmHg 58%
    20:00 +25°C° 0 mm 5 mps 754 mmHg 58%
    21:00 +25°C° 0 mm 5 mps 755 mmHg 58%
    22:00 +24°C° 0 mm 6 mps 755 mmHg 58%
    23:00 +23°C° 0 mm 6 mps 755 mmHg 59%

    Day after tomorrow, 25 November, Saturday

    Time Temperature Precipitation Wind Pressure Humidity
    00:00 +23°C° 0 mm 6 mps 755 mmHg 60%
    01:00 +23°C° 0 mm 7 mps 754 mmHg 61%
    02:00 +23°C° 0 mm 7 mps 754 mmHg 58%
    03:00 +23°C° 0 mm 7 mps 754 mmHg 55%
    04:00 +23°C° 0 mm 6 mps 754 mmHg 52%
    05:00 +22°C° 0 mm 6 mps 754 mmHg 51%
    06:00 +22°C° 0 mm 5 mps 755 mmHg 50%
    07:00 +22°C° 0 mm 5 mps 755 mmHg 50%
    08:00 +25°C° 0 mm 5 mps 755 mmHg 43%
    09:00 +27°C° 0 mm 4 mps 756 mmHg 36%
    10:00 +28°C° 0 mm 4 mps 756 mmHg 29%
    11:00 +29°C° 0 mm 4 mps 756 mmHg 28%
    12:00 +29°C° 0 mm 4 mps 755 mmHg 28%
    13:00 +29°C° 0 mm 4 mps 755 mmHg 27%
    14:00 +29°C° 0 mm 4 mps 755 mmHg 29%
    15:00 +28°C° 0 mm 4 mps 755 mmHg 31%
    16:00 +27°C° 0 mm 4 mps 754 mmHg 33%
    17:00 +26°C° 0 mm 4 mps 755 mmHg 39%
    18:00 +23°C° 0 mm 4 mps 755 mmHg 45%
    19:00 +22°C° 0 mm 4 mps 755 mmHg 50%
    20:00 +21°C° 0 mm 4 mps 756 mmHg 54%
    21:00 +20°C° 0 mm 4 mps 756 mmHg 58%
    22:00 +20°C° 0 mm 4 mps 756 mmHg 61%
    23:00 +20°C° 0 mm 4 mps 756 mmHg 64%

    26 November, Sunday

    Time Temperature Precipitation Wind Pressure Humidity
    00:00 +19°C° 0 mm 3 mps 756 mmHg 66%
    01:00 +19°C° 0 mm 3 mps 756 mmHg 69%
    02:00 +19°C° 0 mm 3 mps 755 mmHg 71%
    03:00 +18°C° 0 mm 3 mps 755 mmHg 72%
    04:00 +18°C° 0 mm 3 mps 755 mmHg 74%
    05:00 +18°C° 0 mm 3 mps 756 mmHg 73%
    06:00 +18°C° 0 mm 3 mps 756 mmHg 72%
    07:00 +18°C° 0 mm 3 mps 757 mmHg 71%
    08:00 +20°C° 0 mm 3 mps 757 mmHg 61%
    09:00 +24°C° 0 mm 2 mps 757 mmHg 50%
    10:00 +27°C° 0 mm 2 mps 758 mmHg 39%
    11:00 +27°C° 0 mm 2 mps 757 mmHg 34%
    12:00 +28°C° 0 mm 2 mps 756 mmHg 30%
    13:00 +29°C° 0 mm 2 mps 756 mmHg 26%
    14:00 +29°C° 0 mm 2 mps 756 mmHg 26%
    15:00 +29°C° 0 mm 2 mps 755 mmHg 26%
    16:00 +29°C° 0 mm 2 mps 755 mmHg 27%
    17:00 +27°C° 0 mm 2 mps 755 mmHg 34%
    18:00 +25°C° 0 mm 2 mps 756 mmHg 42%
    19:00 +23°C° 0 mm 1 mps 756 mmHg 50%
    20:00 +22°C° 0 mm 1 mps 756 mmHg 53%
    21:00 +22°C° 0 mm 1 mps 756 mmHg 56%
    22:00 +21°C° 0 mm 1 mps 756 mmHg 58%
    23:00 +21°C° 0 mm 1 mps 756 mmHg 61%

    27 November, Monday

    Time Temperature Precipitation Wind Pressure Humidity
    00:00 +20°C° 0 mm 1 mps 756 mmHg 64%
    01:00 +20°C° 0 mm 1 mps 755 mmHg 66%
    02:00 +19°C° 0 mm 1 mps 755 mmHg 70%
    03:00 +19°C° 0 mm 1 mps 755 mmHg 73%
    04:00 +19°C° 0 mm 1 mps 755 mmHg 77%
    05:00 +19°C° 0 mm 1 mps 755 mmHg 78%
    06:00 +18°C° 0 mm 1 mps 755 mmHg 79%
    07:00 +18°C° 0 mm 1 mps 756 mmHg 79%
    08:00 +21°C° 0 mm 1 mps 756 mmHg 65%
    09:00 +24°C° 0 mm 1 mps 756 mmHg 50%
    10:00 +27°C° 0 mm 1 mps 756 mmHg 35%
    11:00 +28°C° 0 mm 1 mps 756 mmHg 31%
    12:00 +29°C° 0 mm 2 mps 755 mmHg 27%
    13:00 +30°C° 0 mm 2 mps 754 mmHg 22%
    14:00 +30°C° 0 mm 2 mps 754 mmHg 24%
    15:00 +30°C° 0 mm 2 mps 754 mmHg 27%
    16:00 +29°C° 0 mm 2 mps 753 mmHg 29%
    17:00 +27°C° 0 mm 2 mps 754 mmHg 36%
    18:00 +25°C° 0 mm 2 mps 754 mmHg 44%
    19:00 +23°C° 0 mm 2 mps 754 mmHg 51%
    20:00 +23°C° 0 mm 1 mps 754 mmHg 54%
    21:00 +22°C° 0 mm 1 mps 754 mmHg 57%
    22:00 +21°C° 0 mm 1 mps 754 mmHg 59%
    23:00 +21°C° 0 mm 1 mps 754 mmHg 61%

    28 November, Tuesday

    Time Temperature Precipitation Wind Pressure Humidity
    00:00 +20°C° 0 mm 1 mps 753 mmHg 62%
    01:00 +20°C° 0 mm 1 mps 753 mmHg 64%
    02:00 +20°C° 0 mm 1 mps 753 mmHg 64%
    03:00 +19°C° 0 mm 1 mps 753 mmHg 65%
    04:00 +19°C° 0 mm 1 mps 753 mmHg 65%
    05:00 +19°C° 0 mm 1 mps 753 mmHg 63%
    06:00 +19°C° 0 mm 1 mps 754 mmHg 61%
    07:00 +19°C° 0 mm 1 mps 754 mmHg 58%
    08:00 +22°C° 0 mm 1 mps 754 mmHg 46%
    09:00 +25°C° 0 mm 1 mps 754 mmHg 35%
    10:00 +29°C° 0 mm 1 mps 755 mmHg 23%
    11:00 +30°C° 0 mm 2 mps 754 mmHg 21%
    12:00 +31°C° 0 mm 2 mps 753 mmHg 20%
    13:00 +33°C° 0 mm 3 mps 753 mmHg 19%
    14:00 +31°C° 0 mm 3 mps 752 mmHg 23%
    15:00 +31°C° 0 mm 3 mps 752 mmHg 28%
    16:00 +30°C° 0 mm 3 mps 752 mmHg 32%
    17:00 +29°C° 0 mm 3 mps 752 mmHg 40%
    18:00 +27°C° 0 mm 3 mps 752 mmHg 48%
    19:00 +25°C° 0 mm 3 mps 753 mmHg 55%
    20:00 +25°C° 0 mm 3 mps 753 mmHg 60%
    21:00 +24°C° 0 mm 3 mps 753 mmHg 64%
    22:00 +22°C° 0 mm 3 mps 753 mmHg 69%
    23:00 +22°C° 0 mm 3 mps 752 mmHg 70%
    Show more